Lubbock, TX

9:13 AM CST on December 09, 2019 (GMT -0600)
Lubbock International

Weather History for KLBB - May, 2019

Change the Weather History Date:

Thursday, May 23, 2019

  Actual Average Record
Temperature  
Mean Temperature 73 °F 72 °F  
Max Temperature 88 °F 86 °F 105 °F (2000)
Min Temperature 58 °F 58 °F 45 °F (1917)
Degree Days  
Heating Degree Days 0 1  
Month to date heating degree days 52 36  
Since 1 July heating degree days 3449 3373  
Cooling Degree Days 8 8  
Month to date cooling degree days 98 121  
Year to date cooling degree days 161 177  
Growing Degree Days 23 (Base 50)    
Moisture  
Dew Point 64 °F    
Average Humidity 74    
Maximum Humidity 90    
Minimum Humidity 46    
Precipitation  
Precipitation 0.58 in 0.09 in 4.32 in (1941)
Month to date precipitation 1.31 1.56  
Year to date precipitation 4.23 5.47  
Snow  
Snow 0.00 in 0.00 in T in (1954)
Month to date snowfall T 0.0  
Since 1 July snowfall 10.1 8.2  
Snow Depth 0.00 in    
Sea Level Pressure  
Sea Level Pressure 29.77 in    
Wind  
Wind Speed 18 mph ()    
Max Wind Speed 37 mph    
Max Gust Speed 45 mph    
Visibility 6.7 miles    
Events Rain , Hail , Thunderstorm    
T = Trace of Precipitation, MM = Missing Value Source: Averaged Metar Reports

Daily Weather History Graph

Daily Weather History Graph

Search for Another Location

Airport or City:

Astronomy

May. 23, 2019 Rise Set
Actual Time 6:41 AM CDT 8:46 PM CDT
Civil Twilight 6:13 AM CDT 9:14 PM CDT
Nautical Twilight 5:39 AM CDT 9:49 PM CDT
Astronomical Twilight 5:02 AM CDT 10:25 PM CDT
Moon 12:30 AM CDT (5/23) 10:47 AM CDT (5/23)
Length of Visible Light 15h 01m
Length of Day
14h 05m
Waning Gibbous, 77% of the Moon is Illuminated
May 23
Waning Gibbous
May 26
Last Quarter
Jun 3
New
Jun 10
First Quarter
Jun 17
Full

Hourly Weather History & Observations

Time (CDT) Temp. Heat Index Dew Point Humidity Pressure Visibility Wind Dir Wind Speed Gust Speed Precip Events Conditions
12:53 AM 73.0 °F - 64.9 °F 76% 29.65 in 10.0 mi SSE 17.3 mph - N/A   Clear
1:53 AM 72.0 °F - 66.0 °F 81% 29.66 in 8.0 mi SSE 18.4 mph - N/A   Clear
2:42 AM 72.0 °F - 66.9 °F 84% 29.83 in 7.0 mi SSE 18.4 mph - N/A   Mostly Cloudy
2:53 AM 72.0 °F - 66.9 °F 84% 29.66 in 7.0 mi SSE 17.3 mph - N/A   Overcast
3:53 AM 73.0 °F - 68.0 °F 84% 29.66 in 7.0 mi SSE 23.0 mph 29.9 mph N/A   Overcast
4:53 AM 73.0 °F - 68.0 °F 84% 29.67 in 7.0 mi SSE 18.4 mph - N/A   Overcast
5:53 AM 72.0 °F - 68.0 °F 87% 29.68 in 7.0 mi SE 15.0 mph - N/A   Mostly Cloudy
6:37 AM 71.1 °F - 68.0 °F 90% 29.84 in 5.0 mi SE 16.1 mph - N/A   Scattered Clouds
6:53 AM 71.1 °F - 68.0 °F 90% 29.69 in 4.0 mi SE 16.1 mph - N/A   Partly Cloudy
7:10 AM 71.1 °F - 68.0 °F 90% 29.86 in 4.0 mi SE 15.0 mph - N/A   Partly Cloudy
7:53 AM 72.0 °F - 68.0 °F 87% 29.70 in 4.0 mi SSE 16.1 mph - N/A   Partly Cloudy
8:13 AM 73.0 °F - 68.0 °F 84% 29.87 in 4.0 mi SSE 16.1 mph - N/A   Mostly Cloudy
8:53 AM 73.0 °F - 68.0 °F 84% 29.72 in 4.0 mi SSE 21.9 mph - N/A   Overcast
9:53 AM 75.0 °F - 68.0 °F 79% 29.74 in 4.0 mi SSE 23.0 mph 28.8 mph N/A   Haze
10:53 AM 75.9 °F - 68.0 °F 76% 29.74 in 4.0 mi SSE 23.0 mph - N/A   Haze
11:53 AM 81.0 °F 83.3 °F 66.9 °F 62% 29.72 in 7.0 mi South 25.3 mph 32.2 mph N/A   Mostly Cloudy
12:01 PM 82.9 °F 85.4 °F 66.9 °F 58% 29.88 in 7.0 mi South 31.1 mph 36.8 mph N/A   Mostly Cloudy
12:53 PM 84.9 °F 87.1 °F 66.0 °F 53% 29.71 in 6.0 mi South 27.6 mph 36.8 mph N/A   Haze
1:53 PM 86.0 °F 87.6 °F 64.9 °F 49% 29.69 in 6.0 mi South 23.0 mph 33.4 mph N/A   Haze
2:53 PM 87.1 °F 88.9 °F 64.9 °F 48% 29.68 in 5.0 mi South 27.6 mph 35.7 mph N/A   Haze
3:53 PM 87.1 °F 88.3 °F 64.0 °F 46% 29.68 in 4.0 mi SSE 27.6 mph 35.7 mph N/A   Haze
4:53 PM 84.9 °F 85.4 °F 62.1 °F 46% 29.66 in 5.0 mi South 21.9 mph 33.4 mph N/A   Haze
5:53 PM 81.0 °F 82.7 °F 64.9 °F 58% 29.68 in 6.0 mi SSE 24.2 mph 33.4 mph N/A   Haze
6:16 PM 81.0 °F 82.7 °F 64.9 °F 58% 29.84 in 6.0 mi SSE 20.7 mph - N/A Thunderstorm Unknown
6:53 PM 80.1 °F 82.1 °F 66.0 °F 62% 29.70 in 6.0 mi SSE 16.1 mph - N/A Thunderstorm Unknown
7:53 PM 73.9 °F - 68.0 °F 82% 29.70 in 6.0 mi South 6.9 mph 16.1 mph 0.04 in Rain , Thunderstorm Light Thunderstorms and Rain
8:06 PM 71.1 °F - 66.0 °F 84% 29.81 in 2.5 mi SE 35.7 mph 39.1 mph 0.07 in Rain , Hail , Thunderstorm Heavy Thunderstorms with Hail
8:17 PM 62.6 °F - 59.0 °F 88% 29.87 in 6.0 mi SE 24.2 mph 44.9 mph 0.17 in Rain , Thunderstorm Light Thunderstorms and Rain
8:53 PM 64.9 °F - 59.0 °F 81% 29.78 in 10.0 mi NW 17.3 mph - 0.17 in Thunderstorm Thunderstorm
8:57 PM 64.9 °F - 59.0 °F 81% 29.94 in 10.0 mi WNW 27.6 mph 34.5 mph N/A Thunderstorm Thunderstorm
9:53 PM 64.0 °F - 57.0 °F 78% 29.78 in 10.0 mi NE 15.0 mph - N/A Thunderstorm Thunderstorm
10:18 PM 64.0 °F - 55.9 °F 75% 29.92 in 10.0 mi West 32.2 mph - N/A Thunderstorm Thunderstorm
10:53 PM 66.0 °F - 55.9 °F 70% 29.80 in 10.0 mi NE 8.1 mph - N/A Thunderstorm Thunderstorm
11:09 PM 66.0 °F - 57.9 °F 75% 29.92 in 10.0 mi Variable 3.5 mph - N/A   Mostly Cloudy
11:39 PM 66.0 °F - 55.9 °F 70% 29.95 in 10.0 mi WNW 15.0 mph 28.8 mph N/A Thunderstorm Thunderstorm
11:45 PM 64.9 °F - 54.0 °F 68% 29.94 in 10.0 mi NW 19.6 mph 31.1 mph N/A Thunderstorm Thunderstorm
11:53 PM 64.4 °F - 53.6 °F 68% 29.83 in 10.0 mi NW 18.4 mph 32.2 mph N/A Thunderstorm Thunderstorm